ITY36P CYVR-KSFO

Flight info

Callsign ITY36P
Flight time 1h 41m
Altitude 37000
Route VIXOR DCT ELMAA Q1 ETCHY DCT MLBEC BDEGA4
Aircraft A359/H-SDE2E3GHIJ1J3J4J5LM1ORWXY/LB1D1

Departure

Time 2026-05-06 19:11
Airport Vancouver International Airport (CYVR)

Arrival

Time 2026-05-06 20:53
Airport San Francisco International Airport (KSFO)
Time Latitude Longitude Altitude Speed Heading
2026-05-06 18:56 49.19714 -123.17037 29 ft 0 kts 116°
2026-05-06 18:59 49.19715 -123.17038 29 ft 2 kts 116°
2026-05-06 18:59 49.19722 -123.17068 28 ft 2 kts 102°
2026-05-06 19:00 49.19723 -123.17086 29 ft 2 kts 71°
2026-05-06 19:00 49.19717 -123.17099 28 ft 2 kts 24°
2026-05-06 19:00 49.19710 -123.17103 27 ft 2 kts 11°
2026-05-06 19:00 49.19700 -123.17106 28 ft 2 kts
2026-05-06 19:01 49.19688 -123.17106 27 ft 0 kts 358°
2026-05-06 19:03 49.19687 -123.17106 27 ft 0 kts 358°
2026-05-06 19:05 49.19691 -123.17106 28 ft 3 kts 359°
2026-05-06 19:05 49.19740 -123.17105 29 ft 11 kts
2026-05-06 19:05 49.19876 -123.17146 29 ft 17 kts 313°
2026-05-06 19:05 49.19926 -123.17325 29 ft 19 kts 306°
2026-05-06 19:06 49.19989 -123.17430 28 ft 21 kts 301°
2026-05-06 19:06 49.20024 -123.17650 29 ft 23 kts 279°
2026-05-06 19:06 49.20053 -123.17904 29 ft 26 kts 279°
2026-05-06 19:06 49.20084 -123.18183 29 ft 28 kts 279°
2026-05-06 19:07 49.20118 -123.18487 29 ft 30 kts 279°
2026-05-06 19:07 49.20155 -123.18811 29 ft 31 kts 279°
2026-05-06 19:07 49.20058 -123.19048 29 ft 23 kts 191°
2026-05-06 19:07 49.19894 -123.19090 29 ft 25 kts 189°
2026-05-06 19:08 49.19778 -123.19118 29 ft 26 kts 189°
2026-05-06 19:08 49.19599 -123.19163 29 ft 27 kts 190°
2026-05-06 19:08 49.19414 -123.19217 29 ft 28 kts 194°
2026-05-06 19:08 49.19307 -123.19436 28 ft 28 kts 258°
2026-05-06 19:09 49.19270 -123.19740 29 ft 30 kts 259°
2026-05-06 19:09 49.19228 -123.20064 29 ft 32 kts 259°
2026-05-06 19:09 49.19169 -123.20389 29 ft 29 kts 225°
2026-05-06 19:09 49.18997 -123.20427 30 ft 22 kts 145°
2026-05-06 19:10 49.18949 -123.20263 30 ft 0 kts 100°
2026-05-06 19:10 49.18949 -123.20262 30 ft 4 kts 100°
2026-05-06 19:10 49.18893 -123.19804 29 ft 81 kts 100°
2026-05-06 19:11 49.18759 -123.18615 27 ft 144 kts 99°
2026-05-06 19:11 49.18598 -123.16970 531 ft 158 kts 98°
2026-05-06 19:11 49.18708 -123.15299 1358 ft 163 kts 76°
2026-05-06 19:11 49.19299 -123.13812 2136 ft 166 kts 50°
2026-05-06 19:12 49.20246 -123.12856 2897 ft 161 kts 20°
2026-05-06 19:12 49.21328 -123.12730 3546 ft 157 kts 349°
2026-05-06 19:12 49.22462 -123.12517 3753 ft 178 kts 32°
2026-05-06 19:12 49.23179 -123.10969 3976 ft 195 kts 81°
2026-05-06 19:13 49.22930 -123.08891 4165 ft 212 kts 126°
2026-05-06 19:13 49.21708 -123.07534 4447 ft 232 kts 166°
2026-05-06 19:13 49.20062 -123.07695 4848 ft 251 kts 203°
2026-05-06 19:13 49.18694 -123.09393 5516 ft 258 kts 232°
2026-05-06 19:14 49.17599 -123.11569 6423 ft 260 kts 231°
2026-05-06 19:14 49.16167 -123.13281 7251 ft 266 kts 212°
2026-05-06 19:14 49.14497 -123.14557 8112 ft 271 kts 207°
2026-05-06 19:14 49.12772 -123.15671 8984 ft 275 kts 206°
2026-05-06 19:15 49.11002 -123.16826 9890 ft 278 kts 207°
2026-05-06 19:15 49.09216 -123.18083 10542 ft 291 kts 210°
2026-05-06 19:15 49.07346 -123.19517 10902 ft 312 kts 211°
2026-05-06 19:15 49.05370 -123.21127 11248 ft 332 kts 212°
2026-05-06 19:16 49.03302 -123.22864 11719 ft 346 kts 212°
2026-05-06 19:16 49.01182 -123.24661 12419 ft 351 kts 212°
2026-05-06 19:16 48.99029 -123.26484 13166 ft 356 kts 212°
2026-05-06 19:16 48.96849 -123.28323 13919 ft 360 kts 213°
2026-05-06 19:17 48.94672 -123.30152 14600 ft 364 kts 213°
2026-05-06 19:17 48.92447 -123.32017 15297 ft 367 kts 213°
2026-05-06 19:17 48.90195 -123.33900 16021 ft 370 kts 213°
2026-05-06 19:17 48.87930 -123.35790 16737 ft 373 kts 213°
2026-05-06 19:18 48.85645 -123.37696 17448 ft 377 kts 213°
2026-05-06 19:18 48.83338 -123.39621 18145 ft 380 kts 213°
2026-05-06 19:18 48.81010 -123.41559 18791 ft 383 kts 214°
2026-05-06 19:18 48.78659 -123.43512 19377 ft 387 kts 214°
2026-05-06 19:19 48.76302 -123.45427 19955 ft 393 kts 211°
2026-05-06 19:19 48.73747 -123.47022 20551 ft 402 kts 203°
2026-05-06 19:19 48.70992 -123.47993 21176 ft 412 kts 194°
2026-05-06 19:19 48.68107 -123.48385 21744 ft 422 kts 188°
2026-05-06 19:20 48.65149 -123.48418 22327 ft 429 kts 185°
2026-05-06 19:20 48.62141 -123.48255 22946 ft 434 kts 183°
2026-05-06 19:20 48.59108 -123.48018 23548 ft 439 kts 182°
2026-05-06 19:20 48.56035 -123.47774 24032 ft 445 kts 182°
2026-05-06 19:21 48.52927 -123.47547 24451 ft 450 kts 183°
2026-05-06 19:21 48.49829 -123.47344 24950 ft 453 kts 184°
2026-05-06 19:21 48.46670 -123.47169 25450 ft 456 kts 184°
2026-05-06 19:21 48.43483 -123.47012 25923 ft 461 kts 184°
2026-05-06 19:22 48.40265 -123.46862 26433 ft 464 kts 184°
2026-05-06 19:22 48.37025 -123.46713 26916 ft 468 kts 184°
2026-05-06 19:22 48.33757 -123.46563 27397 ft 472 kts 184°
2026-05-06 19:22 48.30466 -123.46409 27877 ft 476 kts 184°
2026-05-06 19:23 48.27142 -123.46252 28382 ft 480 kts 184°
2026-05-06 19:23 48.23837 -123.46094 28841 ft 483 kts 184°
2026-05-06 19:23 48.20464 -123.45933 29312 ft 487 kts 184°
2026-05-06 19:23 48.17062 -123.45769 29720 ft 491 kts 184°
2026-05-06 19:24 48.13632 -123.45606 30128 ft 495 kts 184°
2026-05-06 19:24 48.10178 -123.45440 30494 ft 499 kts 184°
2026-05-06 19:24 48.06695 -123.45272 30846 ft 502 kts 184°
2026-05-06 19:24 48.03196 -123.45104 31202 ft 505 kts 184°
2026-05-06 19:25 47.99676 -123.44930 31497 ft 508 kts 184°
2026-05-06 19:25 47.96132 -123.44737 31810 ft 511 kts 184°
2026-05-06 19:25 47.92619 -123.44564 32125 ft 513 kts 184°
2026-05-06 19:25 47.89047 -123.44393 32420 ft 515 kts 184°
2026-05-06 19:26 47.85456 -123.44225 32738 ft 517 kts 184°
2026-05-06 19:26 47.81858 -123.44073 33104 ft 518 kts 184°
2026-05-06 19:26 47.78260 -123.43914 33548 ft 517 kts 184°
2026-05-06 19:26 47.74660 -123.43749 33934 ft 517 kts 184°
2026-05-06 19:27 47.71068 -123.43581 34317 ft 517 kts 184°
2026-05-06 19:27 47.67518 -123.43413 34648 ft 517 kts 183°
2026-05-06 19:27 47.63925 -123.43242 34998 ft 517 kts 183°
2026-05-06 19:27 47.60333 -123.43072 35339 ft 516 kts 184°
2026-05-06 19:28 47.56745 -123.42904 35692 ft 516 kts 183°
2026-05-06 19:28 47.53158 -123.42735 36010 ft 516 kts 183°
2026-05-06 19:28 47.49570 -123.42569 36323 ft 516 kts 183°
2026-05-06 19:28 47.45979 -123.42405 36633 ft 516 kts 183°
2026-05-06 19:29 47.42385 -123.42238 36916 ft 516 kts 183°
2026-05-06 19:29 47.38794 -123.42071 37124 ft 517 kts 183°
2026-05-06 19:29 47.35253 -123.41904 37179 ft 516 kts 183°
2026-05-06 19:30 47.28077 -123.41571 37179 ft 516 kts 183°
2026-05-06 19:30 47.20891 -123.41238 37183 ft 517 kts 183°
2026-05-06 19:31 47.13714 -123.40908 37185 ft 515 kts 183°
2026-05-06 19:31 47.03030 -123.40543 37206 ft 514 kts 184°
2026-05-06 19:32 46.95877 -123.40323 37209 ft 515 kts 183°
2026-05-06 19:32 46.88723 -123.40093 37207 ft 514 kts 183°
2026-05-06 19:33 46.81576 -123.39865 37210 ft 513 kts 183°
2026-05-06 19:33 46.74434 -123.39644 37214 ft 513 kts 183°
2026-05-06 19:34 46.67339 -123.39425 37213 ft 513 kts 183°
2026-05-06 19:34 46.60207 -123.39202 37211 ft 513 kts 183°
2026-05-06 19:35 46.53068 -123.38979 37219 ft 513 kts 183°
2026-05-06 19:35 46.45986 -123.38759 37223 ft 513 kts 183°
2026-05-06 19:36 46.38863 -123.38539 37220 ft 512 kts 183°
2026-05-06 19:36 46.31743 -123.38319 37224 ft 512 kts 183°
2026-05-06 19:37 46.24622 -123.38100 37225 ft 512 kts 183°
2026-05-06 19:37 46.17510 -123.37881 37224 ft 511 kts 182°
2026-05-06 19:38 46.10449 -123.37664 37228 ft 511 kts 182°
2026-05-06 19:38 46.03340 -123.37447 37216 ft 511 kts 182°
2026-05-06 19:39 45.96232 -123.37229 37217 ft 511 kts 182°
2026-05-06 19:39 45.89121 -123.37013 37205 ft 511 kts 182°
2026-05-06 19:40 45.82062 -123.36799 37203 ft 511 kts 182°
2026-05-06 19:40 45.74959 -123.36583 37195 ft 511 kts 182°
2026-05-06 19:41 45.67857 -123.36370 37202 ft 511 kts 182°
2026-05-06 19:41 45.60754 -123.36157 37199 ft 510 kts 182°
2026-05-06 19:42 45.53700 -123.35945 37198 ft 511 kts 182°
2026-05-06 19:42 45.46600 -123.35732 37196 ft 510 kts 182°
2026-05-06 19:43 45.39512 -123.35520 37205 ft 509 kts 182°
2026-05-06 19:43 45.32424 -123.35307 37203 ft 509 kts 182°
2026-05-06 19:44 45.25388 -123.35098 37207 ft 509 kts 182°
2026-05-06 19:44 45.18297 -123.34889 37206 ft 509 kts 182°
2026-05-06 19:45 45.11217 -123.34680 37208 ft 509 kts 182°
2026-05-06 19:45 45.04134 -123.34470 37207 ft 509 kts 182°
2026-05-06 19:46 44.97107 -123.34262 37210 ft 508 kts 182°
2026-05-06 19:46 44.90033 -123.34055 37208 ft 508 kts 182°
2026-05-06 19:47 44.82964 -123.33848 37212 ft 508 kts 182°
2026-05-06 19:47 44.75886 -123.33642 37221 ft 508 kts 182°
2026-05-06 19:48 44.68872 -123.33437 37220 ft 507 kts 182°
2026-05-06 19:48 44.61813 -123.33231 37226 ft 508 kts 182°
2026-05-06 19:49 44.54756 -123.33028 37237 ft 507 kts 182°
2026-05-06 19:49 44.47706 -123.32823 37223 ft 507 kts 182°
2026-05-06 19:50 44.40704 -123.32550 37223 ft 506 kts 181°
2026-05-06 19:50 44.33661 -123.32245 37228 ft 507 kts 181°
2026-05-06 19:51 44.26614 -123.31951 37229 ft 507 kts 181°
2026-05-06 19:51 44.19568 -123.31668 37227 ft 506 kts 181°
2026-05-06 19:52 44.12520 -123.31388 37227 ft 507 kts 181°
2026-05-06 19:52 44.05514 -123.31110 37230 ft 507 kts 181°
2026-05-06 19:53 43.98466 -123.30831 37228 ft 507 kts 181°
2026-05-06 19:53 43.91421 -123.30552 37225 ft 506 kts 181°
2026-05-06 19:54 43.84376 -123.30274 37229 ft 506 kts 181°
2026-05-06 19:54 43.77328 -123.29997 37222 ft 506 kts 181°
2026-05-06 19:55 43.70333 -123.29723 37227 ft 506 kts 181°
2026-05-06 19:55 43.63304 -123.29448 37221 ft 505 kts 181°
2026-05-06 19:56 43.56278 -123.29173 37223 ft 505 kts 181°
2026-05-06 19:56 43.49246 -123.28898 37216 ft 505 kts 181°
2026-05-06 19:57 43.42278 -123.28626 37216 ft 504 kts 181°
2026-05-06 19:57 43.35266 -123.28355 37217 ft 503 kts 181°
2026-05-06 19:58 43.28266 -123.28083 37219 ft 503 kts 181°
2026-05-06 19:58 43.21274 -123.27813 37220 ft 502 kts 181°
2026-05-06 19:59 43.14330 -123.27546 37219 ft 502 kts 181°
2026-05-06 19:59 43.07344 -123.27277 37194 ft 502 kts 182°
2026-05-06 20:00 43.00360 -123.27010 37195 ft 501 kts 182°
2026-05-06 20:00 42.93389 -123.26743 37185 ft 501 kts 182°
2026-05-06 20:01 42.86416 -123.26470 37181 ft 501 kts 182°
2026-05-06 20:01 42.79498 -123.26204 37172 ft 501 kts 182°
2026-05-06 20:02 42.72539 -123.25944 37157 ft 500 kts 182°
2026-05-06 20:02 42.65574 -123.25683 37155 ft 501 kts 182°
2026-05-06 20:03 42.58609 -123.25420 37146 ft 501 kts 182°
2026-05-06 20:03 42.51686 -123.25159 37143 ft 501 kts 182°
2026-05-06 20:04 42.44712 -123.24903 37149 ft 502 kts 182°
2026-05-06 20:04 42.37738 -123.24644 37141 ft 501 kts 182°
2026-05-06 20:05 42.30774 -123.24385 37141 ft 500 kts 182°
2026-05-06 20:05 42.23860 -123.24128 37141 ft 501 kts 182°
2026-05-06 20:06 42.16892 -123.23872 37140 ft 501 kts 182°
2026-05-06 20:06 42.09916 -123.23615 37139 ft 501 kts 182°
2026-05-06 20:07 42.02948 -123.23360 37147 ft 501 kts 181°
2026-05-06 20:07 41.95974 -123.23106 37149 ft 501 kts 181°
2026-05-06 20:08 41.89041 -123.22861 37150 ft 502 kts 181°
2026-05-06 20:08 41.82055 -123.22604 37149 ft 502 kts 181°
2026-05-06 20:09 41.75056 -123.22345 37146 ft 503 kts 181°
2026-05-06 20:09 41.68069 -123.22090 37150 ft 502 kts 181°
2026-05-06 20:10 41.61141 -123.21838 37155 ft 501 kts 181°
2026-05-06 20:10 41.54171 -123.21604 37154 ft 501 kts 181°
2026-05-06 20:11 41.47201 -123.21363 37162 ft 501 kts 181°
2026-05-06 20:11 41.40228 -123.21121 37164 ft 501 kts 181°
2026-05-06 20:12 41.33305 -123.20887 37184 ft 501 kts 181°
2026-05-06 20:12 41.26329 -123.20687 37179 ft 501 kts 181°
2026-05-06 20:13 41.19350 -123.20521 37176 ft 502 kts 181°
2026-05-06 20:13 41.12372 -123.20351 37177 ft 501 kts 181°
2026-05-06 20:14 41.05444 -123.20175 37174 ft 501 kts 181°
2026-05-06 20:14 40.98463 -123.20000 37165 ft 502 kts 181°
2026-05-06 20:15 40.91480 -123.19822 37164 ft 502 kts 181°
2026-05-06 20:15 40.84492 -123.19648 37158 ft 502 kts 181°
2026-05-06 20:16 40.77547 -123.19475 37154 ft 502 kts 181°
2026-05-06 20:16 40.70561 -123.19302 37144 ft 502 kts 181°
2026-05-06 20:17 40.63573 -123.19128 37146 ft 503 kts 181°
2026-05-06 20:17 40.56571 -123.18952 37141 ft 504 kts 181°
2026-05-06 20:18 40.49574 -123.18777 37148 ft 502 kts 181°
2026-05-06 20:18 40.42631 -123.18606 37141 ft 502 kts 180°
2026-05-06 20:19 40.35639 -123.18433 37149 ft 502 kts 180°
2026-05-06 20:19 40.28650 -123.18261 37153 ft 503 kts 180°
2026-05-06 20:20 40.21645 -123.18088 37147 ft 503 kts 180°
2026-05-06 20:20 40.14696 -123.17917 37160 ft 502 kts 180°
2026-05-06 20:21 40.07705 -123.17747 37156 ft 503 kts 180°
2026-05-06 20:21 40.00708 -123.17577 37164 ft 503 kts 180°
2026-05-06 20:22 39.93702 -123.17401 37162 ft 503 kts 180°
2026-05-06 20:22 39.86707 -123.17091 37168 ft 503 kts 179°
2026-05-06 20:23 39.79767 -123.16730 37168 ft 503 kts 179°
2026-05-06 20:23 39.72777 -123.16387 37167 ft 503 kts 179°
2026-05-06 20:24 39.65787 -123.16061 37168 ft 503 kts 179°
2026-05-06 20:24 39.58798 -123.15741 37166 ft 503 kts 179°
2026-05-06 20:25 39.51840 -123.15423 37163 ft 504 kts 179°
2026-05-06 20:25 39.44827 -123.15101 37163 ft 504 kts 179°
2026-05-06 20:26 39.37816 -123.14780 37160 ft 504 kts 179°
2026-05-06 20:26 39.30802 -123.14461 37170 ft 504 kts 179°
2026-05-06 20:27 39.23788 -123.14141 37172 ft 504 kts 179°
2026-05-06 20:27 39.16823 -123.13825 37174 ft 504 kts 178°
2026-05-06 20:28 39.09872 -123.12666 37175 ft 505 kts 164°
2026-05-06 20:28 39.03487 -123.08994 36977 ft 503 kts 149°
2026-05-06 20:29 39.00489 -123.06671 36715 ft 504 kts 147°
2026-05-06 20:29 38.97523 -123.04250 36453 ft 505 kts 146°
2026-05-06 20:29 38.94614 -123.01832 36178 ft 504 kts 146°
2026-05-06 20:29 38.91687 -122.99399 35593 ft 501 kts 146°
2026-05-06 20:30 38.88706 -122.97068 34848 ft 502 kts 152°
2026-05-06 20:30 38.82024 -122.94307 33100 ft 508 kts 166°
2026-05-06 20:30 38.78588 -122.93268 32239 ft 509 kts 166°
2026-05-06 20:31 38.75128 -122.92240 31355 ft 511 kts 166°
2026-05-06 20:31 38.71656 -122.91212 30440 ft 513 kts 166°
2026-05-06 20:31 38.68169 -122.90181 29389 ft 516 kts 166°
2026-05-06 20:31 38.64725 -122.89164 28612 ft 513 kts 166°
2026-05-06 20:32 38.61267 -122.88144 27962 ft 507 kts 166°
2026-05-06 20:32 38.57853 -122.87138 27296 ft 502 kts 166°
2026-05-06 20:32 38.54465 -122.86141 26623 ft 497 kts 166°
2026-05-06 20:32 38.51105 -122.85153 25952 ft 493 kts 166°
2026-05-06 20:33 38.47772 -122.84173 25282 ft 489 kts 166°
2026-05-06 20:33 38.44470 -122.83204 24624 ft 485 kts 166°
2026-05-06 20:33 38.41188 -122.82241 23965 ft 482 kts 166°
2026-05-06 20:33 38.37937 -122.81289 23234 ft 478 kts 166°
2026-05-06 20:34 38.34763 -122.80360 22570 ft 472 kts 166°
2026-05-06 20:34 38.31585 -122.79431 21912 ft 466 kts 166°
2026-05-06 20:34 38.28442 -122.78513 21260 ft 460 kts 166°
2026-05-06 20:34 38.25342 -122.77608 20608 ft 455 kts 166°
2026-05-06 20:35 38.22275 -122.76714 19960 ft 450 kts 166°
2026-05-06 20:35 38.19239 -122.75829 19299 ft 446 kts 165°
2026-05-06 20:35 38.16231 -122.74952 18633 ft 442 kts 165°
2026-05-06 20:35 38.13247 -122.74083 17921 ft 438 kts 165°
2026-05-06 20:36 38.10336 -122.73236 17241 ft 433 kts 165°
2026-05-06 20:36 38.07420 -122.72389 16531 ft 428 kts 165°
2026-05-06 20:36 38.04525 -122.71548 15749 ft 426 kts 165°
2026-05-06 20:36 38.01643 -122.70713 15046 ft 422 kts 165°
2026-05-06 20:37 37.98818 -122.69897 14710 ft 409 kts 165°
2026-05-06 20:37 37.96093 -122.69109 14488 ft 394 kts 165°
2026-05-06 20:37 37.93476 -122.68352 14311 ft 378 kts 165°
2026-05-06 20:37 37.90981 -122.67554 14183 ft 361 kts 159°
2026-05-06 20:38 37.88814 -122.66140 13921 ft 346 kts 142°
2026-05-06 20:38 37.86969 -122.64285 13445 ft 341 kts 138°
2026-05-06 20:38 37.85175 -122.62349 12990 ft 337 kts 137°
2026-05-06 20:38 37.83401 -122.60435 12539 ft 334 kts 138°
2026-05-06 20:39 37.81637 -122.58550 12213 ft 327 kts 138°
2026-05-06 20:39 37.79929 -122.56737 12088 ft 313 kts 138°
2026-05-06 20:39 37.78296 -122.55002 11950 ft 301 kts 137°
2026-05-06 20:39 37.76715 -122.53322 11707 ft 295 kts 138°
2026-05-06 20:40 37.75151 -122.51663 11376 ft 293 kts 138°
2026-05-06 20:40 37.73589 -122.50007 11035 ft 292 kts 139°
2026-05-06 20:40 37.72036 -122.48361 10923 ft 295 kts 138°
2026-05-06 20:40 37.70469 -122.46688 10922 ft 301 kts 138°
2026-05-06 20:41 37.68867 -122.44983 10917 ft 302 kts 137°
2026-05-06 20:41 37.67261 -122.43272 10925 ft 302 kts 138°
2026-05-06 20:41 37.65657 -122.41566 10914 ft 301 kts 137°
2026-05-06 20:41 37.64055 -122.39866 10922 ft 301 kts 139°
2026-05-06 20:42 37.62445 -122.38172 10910 ft 301 kts 139°
2026-05-06 20:42 37.60688 -122.36721 10864 ft 303 kts 149°
2026-05-06 20:42 37.58821 -122.35479 10767 ft 304 kts 151°
2026-05-06 20:42 37.56942 -122.34267 10676 ft 304 kts 151°
2026-05-06 20:43 37.55062 -122.33053 10445 ft 302 kts 152°
2026-05-06 20:43 37.53191 -122.31842 10213 ft 303 kts 151°
2026-05-06 20:43 37.51345 -122.30643 9991 ft 303 kts 151°
2026-05-06 20:43 37.49477 -122.29430 9727 ft 302 kts 151°
2026-05-06 20:44 37.47617 -122.28221 9468 ft 300 kts 152°
2026-05-06 20:44 37.45768 -122.27020 9223 ft 299 kts 151°
2026-05-06 20:44 37.43928 -122.25809 9037 ft 298 kts 149°
2026-05-06 20:44 37.42279 -122.24243 9025 ft 296 kts 132°
2026-05-06 20:45 37.41160 -122.22120 9023 ft 290 kts 108°
2026-05-06 20:45 37.40840 -122.19693 8966 ft 284 kts 83°
2026-05-06 20:45 37.41254 -122.17289 8844 ft 281 kts 71°
2026-05-06 20:45 37.41517 -122.14836 8715 ft 285 kts 84°
2026-05-06 20:46 37.41776 -122.12386 8569 ft 280 kts 75°
2026-05-06 20:46 37.42505 -122.10145 8062 ft 278 kts 55°
2026-05-06 20:46 37.43892 -122.08497 7549 ft 277 kts 27°
2026-05-06 20:46 37.45733 -122.07943 7097 ft 275 kts 358°
2026-05-06 20:47 37.47496 -122.08621 6652 ft 279 kts 328°
2026-05-06 20:47 37.48934 -122.10320 6064 ft 274 kts 313°
2026-05-06 20:47 37.50116 -122.12090 5683 ft 259 kts 311°
2026-05-06 20:47 37.51231 -122.13770 5399 ft 242 kts 312°
2026-05-06 20:48 37.52271 -122.15348 5150 ft 225 kts 311°
2026-05-06 20:48 37.53210 -122.16840 4645 ft 212 kts 312°
2026-05-06 20:48 37.54027 -122.18358 4109 ft 204 kts 301°
2026-05-06 20:48 37.54666 -122.19849 3858 ft 183 kts 301°
2026-05-06 20:49 37.55250 -122.21211 3487 ft 175 kts 299°
2026-05-06 20:49 37.55818 -122.22570 2957 ft 176 kts 298°
2026-05-06 20:49 37.56398 -122.23937 2442 ft 178 kts 298°
2026-05-06 20:49 37.56978 -122.25292 1957 ft 176 kts 297°
2026-05-06 20:50 37.57544 -122.26636 1527 ft 167 kts 296°
2026-05-06 20:50 37.58051 -122.27850 1362 ft 145 kts 296°
2026-05-06 20:50 37.58501 -122.28917 1240 ft 132 kts 297°
2026-05-06 20:50 37.58920 -122.29912 1082 ft 126 kts 297°
2026-05-06 20:51 37.59329 -122.30890 940 ft 128 kts 297°
2026-05-06 20:51 37.59748 -122.31891 825 ft 129 kts 297°
2026-05-06 20:51 37.60169 -122.32869 631 ft 129 kts 295°
2026-05-06 20:51 37.60571 -122.33878 468 ft 128 kts 296°
2026-05-06 20:52 37.60987 -122.34854 284 ft 125 kts 299°
2026-05-06 20:52 37.61394 -122.35798 97 ft 122 kts 296°
2026-05-06 20:52 37.61786 -122.36738 37 ft 119 kts 296°
2026-05-06 20:52 37.62121 -122.37545 27 ft 74 kts 297°
2026-05-06 20:53 37.62223 -122.37789 26 ft 0 kts 297°
2026-05-06 20:53 37.62223 -122.37790 26 ft 1 kts 295°
2026-05-06 20:53 37.62226 -122.37822 27 ft 5 kts 275°
2026-05-06 20:53 37.62229 -122.37881 27 ft 8 kts 273°
2026-05-06 20:54 37.62230 -122.37956 27 ft 10 kts 271°
2026-05-06 20:54 37.62231 -122.38049 27 ft 11 kts 270°
2026-05-06 20:54 37.62230 -122.38156 27 ft 13 kts 265°
2026-05-06 20:54 37.62193 -122.38262 27 ft 14 kts 230°
2026-05-06 20:55 37.62107 -122.38330 27 ft 16 kts 201°
2026-05-06 20:55 37.62048 -122.38338 27 ft 7 kts 167°
2026-05-06 20:55 37.61999 -122.38293 26 ft 10 kts 142°
2026-05-06 20:55 37.61925 -122.38283 27 ft 12 kts 197°
2026-05-06 20:56 37.61876 -122.38327 27 ft 1 kts 241°
2026-05-06 20:56 37.61875 -122.38344 27 ft 5 kts 269°
2026-05-06 20:56 37.61884 -122.38374 26 ft 0 kts 298°